COSMOS 1691 DEB, 16268

Orbit data source: Space-Track

COSMOS 1691 DEB, 16268 is space debris in LEO originally from a launch on Wed, 09 Oct 1985 UTC launched from the Plesetsk Missile And Space Complex (PKMTR). Debris objects in space refer to the collection of defunct objects orbiting the Earth. Examples of debris include non-operational satellites, rocket bodies, and fragments generated from explosions, collisions, or faulty payload assembly.

Loading next visibility...
COSMOS 1691 DEB details
Identifier
16268, 1985-094M
Orbit
LEO
Last TLE update8 hours ago
Origin
Flag of CISRVSN (CIS)
ManufacturerUnknown
MissionSpacecraft
Bus & MotorUnknown
MassUnknown
Launch date (UTC)
1985-10-09 (39 years ago)
Launch vehicleUnknown
Launch site
Plesetsk Missile And Space Complex (PKMTR)
Object type
Payload
Rocket body
Debris
Shape & HBRUnknown
Radar Cross SectionSmall (<0.1 m²)

Expand to show TLE details & history

TLE from 8 hours ago
0 COSMOS 1691 DEB
1 16268U 85094M   24361.56608958  .00000394  00000-0  22957-2 0  9995
2 16268  82.7100 173.4770 0085494 264.6936 168.9643 12.56354408789300
Epoch: 2024-12-26T13:35Z
Definitive object data (Epoch: 2024-12-26T13:35:10.139Z)
Latitude72.37835°
Longitude-102.23186°
Altitude1,516.105 km
Speed7.083 km/s
True Right ascension13h 08m 24s
True Declination72° 17' 18"
Sunlit
Object was in daylight at TLE epoch
Visualization TLE readout
Latitude55.28498°
Longitude43.34882°
Altitude1,497.962 km
Speed7.097 km/s
Apparent Right ascension04h 29m 17s
Apparent Declination44° 34' 46"
Sunlit
Object is in daylight
Visualization observer readout
Local Sidereal Time20:53:08
Azimuth41.921° NE
Elevation13.172°
Doppler factor1
Orbital elements
Apogee altitude1,502.153 km
Perigee altitude1,368.551 km
Semi-major axis7,813.489 km
Eccentricity0.0085494
Inclination82.71°
RAAN173.477°
Arg. of periapsis264.6936°
True anomaly169.14988°
Mean anomaly168.9643°
Eccentric anomaly169.05729°
Mean motion3.1425 °/min
BSTAR0.0022957
Orbital period114.56 mins
Loading maneuver chart data...
Loading historical data...
Loading historical data...
Loading historical data...
Loading historical data...
Loading historical data...
Loading historical data...
Loading historical data...

COSMOS 1691 DEB Visibility forecast

Observer location: undefined°, undefined

Span
Click to sort rows by Start time (UTC) header in descending order
Start Az.
Max El. time (UTC)
Max El. Az.
Max El.
End time (UTC)
End Az.
6 mins2024-12-26 21:30:08.724Z42.043° NE2024-12-26 21:32:08.724Z56.855° ENE14.071°2024-12-26 21:36:08.724Z86.07° E
16 mins2024-12-26 23:22:08.724Z356.818° N2024-12-26 23:30:08.724Z106.205° ESE43.783°2024-12-26 23:38:08.724Z166.748° S
11 mins2024-12-27 01:19:08.724Z320.728° NNW2024-12-27 01:24:08.724Z281.525° WNW20.62°2024-12-27 01:30:08.724Z235.609° WSW
6 mins2024-12-27 10:24:08.724Z91.621° ESE2024-12-27 10:26:08.724Z76.807° E13.95°2024-12-27 10:30:08.724Z48.396° ENE
16 mins2024-12-27 12:13:08.724Z178.613° S2024-12-27 12:20:08.724Z113.793° SE44.483°2024-12-27 12:29:08.724Z9.821° NNE
11 mins2024-12-27 14:12:08.724Z256.236° W2024-12-27 14:17:08.724Z297.082° NW20.398°2024-12-27 14:23:08.724Z341.583° N
|